Regional Weather Roundup
Issued by NWS Green Bay, WI

Home | Current Version | Previous Version | Graphics & Text | Print | Product List | Glossary Off
Versions: 1 2 3 4 5 6 7 8 9 10 11 12 13 14 15 16 17 18 19 20 21 22 23 24 25 26 27 28 29 30 31 32 33 34 35 36 37 38 39 40 41 42 43 44 45 46 47 48 49 50

921
ASUS43 KGRB 090600
RWRGRB

NORTH-CENTRAL AND NORTHEAST WISCONSIN REGIONAL WEATHER ROUNDUP
NATIONAL WEATHER SERVICE GREEN BAY WI
1200 AM CST TUE FEB 09 2016

WIZ005-009-010>012-018-019-090700-
NORTH CENTRAL WISCONSIN

CITY           SKY/WX    TMP DP  RH WIND       PRES   REMARKS
IRONWOOD       CLOUDY    12  10  92 N13       29.80R VSB 1   WCI  -3
MANITOWISH WTR NOT AVBL
ARBOR VITAE    NOT AVBL
EAGLE RIVER    NOT AVBL
LAND O LAKES   NOT AVBL
RHINELANDER    CLOUDY     9   4  80 NW6       29.73S HAZE    WCI  -1
PHILLIPS       NOT AVBL
ANTIGO         NOT AVBL
TOMAHAWK       NOT AVBL
MERRILL        NOT AVBL
$$

WIZ013-073-090700-
NORTHEAST WISCONSIN

CITY           SKY/WX    TMP DP  RH WIND       PRES   REMARKS
IRON MOUNTAIN  CLOUDY    13   5  70 N12       29.71S WCI  -1
MARINETTE      CLOUDY    16   7  67 N7        29.75S WCI   6
$$

WIZ017-030-035>037-045-090700-
CENTRAL WISCONSIN

CITY           SKY/WX    TMP DP  RH WIND       PRES   REMARKS
MEDFORD        NOT AVBL
WAUSAU         CLOUDY    12   5  73 NW8       29.76S WCI   0
MOSINEE        NOT AVBL
MARSHFIELD     CLOUDY    10   2  69 NW17      29.79S WCI  -8
WISC RAPIDS    CLOUDY    11   3  70 NW9       29.82S WCI  -2
STEVENS POINT  NOT AVBL
WAUPACA        NOT AVBL
SHAWANO        NOT AVBL
CLINTONVILLE   NOT AVBL
WAUTOMA        NOT AVBL
$$

WIZ038-039-048-051-090700-
FOX VALLEY

CITY           SKY/WX    TMP DP  RH WIND       PRES   REMARKS
NWS GREEN BAY  CLOUDY    18  10  71 NW12      29.75S WCI   5
APPLETON       NOT AVBL
OSHKOSH        FLURRIES  18  11  74 NW12      29.75S WCI   5
FOND DU LAC    FLURRIES  18  13  80 NW13      29.75S WCI   5
$$

WIZ022-050-052-090700-
EAST CENTRAL WISCONSIN

CITY           SKY/WX    TMP DP  RH WIND       PRES   REMARKS
EPHRAIM        NOT AVBL
STURGEON BAY   CLOUDY    18   9  68 N18       29.75S WCI   2
MANITOWOC      NOT AVBL
SHEBOYGAN      LGT SNOW  19  13  77 N9        29.73S WCI   8
$$

LMZ563-521-522-541>543-090700-
LAKESHORE

STATION/POSITION TIME  TEMP    WIND        PRES    VSBY  WAVE
                       AIR SEA DIR/SP/G                  HT/PER
                 (UTC) (F)     (DEG/KT/KT) (MB)    (MI)  (FT/S)
SHEBOYGAN LKSHOR 0500   22     350/ 21/ 24 1007.8R
KEWAUNEE LKSHORE 0500   19     350/ 11/ 16 1006.5S
ALGOMA MARINA    0511          360/ 12/ 14   N/A
NORTHPORT PIER   0503   19     320/ 18/ 21 1007.1S
CHAMBERS ISLAND  0500   18     320/ 16/ 23 1007.5F
MENOMINEE LKSHOR 0500   18     320/ 12     1006.6F
$$




USA.gov is the U.S. government's official web portal to all federal, state and local government web resources and services.